Temp
6 6 5 5 4 4 4 3 2 2 1 0 0 -0 -0 -0 -1 -1 -2 -2 -2 -2
5 5 4 4 4 3 3 3 2 1 1 -0 -1 -1 -1 -1 -1 -2 -3 -3 -3 -3
5 4 4 4 3 3 2 2 2 1 -0 -1 -1 -2 -2 -2 -2 -3 -3 -4 -4 -4
4 4 3 3 3 2 2 2 1 0 -0 -1 -2 -2 -2 -3 -3 -4 -4 -5 -5 -4
3 3 3 2 2 2 1 1 1 0 -0 -1 -2 -2 -3 -4 -4 -5 -5 -5 -5 -5
3 3 2 2 1 1 1 1 1 0 -1 -1 -2 -3 -4 -4 -5 -5 -5 -5 -5 -5
3 2 2 1 1 1 1 1 1 0 -1 -1 -2 -3 -4 -5 -5 -5 -6 -6 -5 -5
2 2 2 1 1 1 1 1 0 -0 -1 -1 -2 -4 -5 -5 -6 -6 -6 -6 -6 -6
2 2 2 1 1 1 0 0 0 -1 -1 -2 -4 -5 -5 -6 -6 -6 -7 -7 -7 -7
2 2 1 1 1 0 0 -0 -0 -1 -2 -3 -5 -5 -6 -6 -7 -7 -7 -8 -8 -8
1 1 1 0 -0 -0 -0 -1 -1 -2 -2 -3 -5 -6 -6 -7 -8 -8 -8 -8 -9 -9
1 0 -0 -1 -1 -1 -1 -2 -2 -3 -4 -4 -5 -6 -6 -7 -8 -9 -9 -9 -9 -9
-0 -0 -1 -1 -1 -2 -2 -3 -4 -4 -5 -6 -7 -7 -7 -8 -9 -9 -9 -9 -9 -9
-1 -1 -2 -2 -3 -3 -4 -5 -5 -6 -7 -7 -8 -8 -8 -9 -9 -9 -9 -10 -10 -10
Height
819 820 822 823 825 825 825 826 826 824 826 826 824 824 819 819 818 816 815 813 811 809
818 819 821 823 824 823 824 825 824 825 825 824 822 821 819 817 816 815 814 811 809 806
817 818 820 823 823 822 822 822 824 824 823 824 821 819 818 816 815 814 811 808 805 803
817 818 820 822 821 822 821 822 822 821 820 820 817 816 816 815 814 812 809 805 802 799
816 818 819 820 821 821 820 822 823 821 818 819 816 814 815 814 813 811 806 802 798 794
817 817 819 819 819 819 819 820 820 820 817 818 815 814 814 813 811 808 803 799 795 792
816 817 819 818 819 818 818 819 820 818 817 815 813 813 812 811 809 805 800 797 794 791
815 815 817 817 818 818 817 817 819 817 816 813 812 812 811 809 806 801 798 795 792 788
813 814 815 815 815 815 816 816 816 817 815 812 811 811 809 807 803 799 796 792 789 785
809 810 812 813 814 814 814 814 816 815 814 811 811 810 808 804 801 797 794 790 785 781
807 809 810 810 811 814 813 813 814 814 813 812 810 808 806 802 799 796 792 788 783 779
805 807 808 808 811 812 812 812 813 812 811 810 809 807 804 801 797 794 790 786 781 777
803 806 806 808 809 810 810 811 811 811 810 809 808 805 803 800 796 792 787 784 779 775
801 804 805 807 808 808 808 810 810 810 809 809 807 805 802 799 795 790 786 782 777 772
Wind_Speed
7 6 6 5 6 7 7 8 10 13 16 13 13 15 15 14 14 20 16 18 20 17
6 5 4 4 4 5 5 6 9 11 9 10 13 15 15 15 17 14 23 23 19 19
7 5 4 3 4 3 4 6 7 7 8 14 13 15 14 14 11 19 23 20 20 20
7 6 5 4 3 3 5 5 5 4 8 13 11 13 13 9 13 21 24 22 20 23
7 6 5 4 3 4 5 5 4 8 10 10 14 10 7 10 17 23 24 23 23 25
8 6 5 4 2 3 3 5 5 8 3 7 12 6 5 13 19 25 24 24 25 26
8 7 5 3 2 2 3 4 6 6 0 11 8 2 9 14 20 24 23 24 23 23
8 6 5 3 2 1 3 4 6 4 5 10 3 5 9 14 20 23 24 23 22 24
8 6 5 3 3 4 3 4 6 5 8 10 5 7 10 15 20 23 24 22 23 26
9 7 6 4 4 4 3 4 5 5 9 8 7 9 13 16 22 22 23 24 27 28
9 6 5 5 5 3 4 5 6 8 9 9 10 13 16 17 20 20 22 25 26 29
9 7 6 6 3 4 4 7 8 10 11 11 12 15 18 20 20 20 22 23 26 26
9 7 7 5 3 6 7 9 8 10 11 12 15 16 17 20 21 21 22 23 26 24
9 7 7 5 7 7 8 9 10 10 10 13 15 16 17 21 22 22 22 24 25 26
Wind_Direction
116 108 89 57 57 58 43 31 9 5 359 15 11 5 11 4 1 356 2 352 341 329
124 114 91 87 88 58 30 22 4 4 22 19 5 7 5 8 2 7 349 344 333 325
133 124 115 124 92 59 21 29 9 14 16 2 9 3 359 359 9 349 344 337 329 323
144 136 138 121 87 29 48 10 3 5 358 1 3 0 355 16 355 348 342 335 327 324
153 154 148 129 94 43 36 7 340 334 344 1 360 7 14 1 352 350 340 339 335 328
161 157 149 134 105 52 20 353 345 333 350 6 10 351 344 354 354 354 351 347 341 329
164 162 166 138 30 61 20 353 349 348 86 14 2 338 2 359 355 358 353 351 346 340
167 164 158 126 72 83 34 20 357 340 25 20 28 30 16 1 360 360 351 349 343 340
166 159 151 141 123 80 42 21 3 56 40 19 77 42 17 3 4 356 352 345 342 340
161 155 143 128 97 65 67 19 41 46 37 42 71 36 16 9 2 355 348 345 342 340
158 146 140 120 95 68 51 31 46 58 44 43 54 28 14 7 2 352 345 343 342 339
153 146 133 105 92 82 55 63 65 54 42 43 25 16 7 3 358 347 342 343 341 340
153 144 123 117 90 86 71 72 61 48 38 35 19 9 2 358 352 343 343 343 339 340
140 136 135 114 103 90 78 66 51 40 25 8 9 7 359 353 350 345 345 338 334 335